UAE9314 YMML-VHHH

Flight info

Callsign UAE9314
Flight time N/A
Altitude 28000
Route KEPPA H336 NATYA J19 BHI T25 TNK J30 TN DCT BEDUG/N0506F300 DCT BUTPA A461 ZAM A583 KALAH/N0499F320 A583 SABNO V542 BETTY
Aircraft B77L/H-SDE1E2E3FGHIJ2J3J4J5M1RWXY/LB1D1

Departure

Time 2026-05-04 10:52
Airport Melbourne Airport (YMML)

Arrival

Time N/A
Airport Hong Kong International Airport (VHHH)
Time Latitude Longitude Altitude Speed Heading
2026-05-04 10:22 -37.67299 144.84391 385 ft 0 kts 116°
2026-05-04 10:39 -37.67211 144.84314 386 ft 4 kts 237°
2026-05-04 10:39 -37.67205 144.84344 387 ft 4 kts 263°
2026-05-04 10:39 -37.67202 144.84375 388 ft 4 kts 269°
2026-05-04 10:40 -37.67201 144.84383 388 ft 0 kts 265°
2026-05-04 10:42 -37.67202 144.84378 388 ft 3 kts 265°
2026-05-04 10:42 -37.67203 144.84352 387 ft 3 kts 265°
2026-05-04 10:43 -37.67211 144.84321 387 ft 6 kts 243°
2026-05-04 10:44 -37.67680 144.84357 378 ft 12 kts 172°
2026-05-04 10:45 -37.67768 144.84373 372 ft 14 kts 171°
2026-05-04 10:45 -37.67868 144.84392 370 ft 15 kts 171°
2026-05-04 10:45 -37.67976 144.84414 366 ft 16 kts 171°
2026-05-04 10:45 -37.68088 144.84434 363 ft 16 kts 172°
2026-05-04 10:46 -37.68201 144.84454 360 ft 16 kts 172°
2026-05-04 10:46 -37.68313 144.84472 356 ft 16 kts 179°
2026-05-04 10:46 -37.68415 144.84412 359 ft 16 kts 214°
2026-05-04 10:46 -37.68505 144.84334 360 ft 16 kts 217°
2026-05-04 10:47 -37.68548 144.84264 355 ft 9 kts 258°
2026-05-04 10:47 -37.68549 144.84256 353 ft 0 kts 259°
2026-05-04 10:51 -37.67234 144.83849 382 ft 161 kts 352°
2026-05-04 10:52 -37.65987 144.83615 671 ft 191 kts 352°
2026-05-04 10:52 -37.64639 144.83366 1200 ft 200 kts 351°
2026-05-04 10:52 -37.63243 144.83106 1881 ft 206 kts 350°
2026-05-04 10:54 -37.52884 144.78104 5313 ft 252 kts 318°
2026-05-04 10:54 -37.51564 144.76639 5984 ft 254 kts 317°
2026-05-04 10:56 -37.42156 144.66178 10332 ft 268 kts 320°
2026-05-04 10:56 -37.40705 144.64570 10479 ft 287 kts 320°
2026-05-04 10:56 -37.39176 144.62874 10626 ft 306 kts 320°
2026-05-04 10:57 -37.37532 144.61053 10815 ft 323 kts 320°
2026-05-04 10:57 -37.35815 144.59150 11227 ft 334 kts 320°
2026-05-04 10:57 -37.34049 144.57194 11772 ft 341 kts 320°
2026-05-04 10:57 -37.32262 144.55215 12441 ft 344 kts 320°
2026-05-04 10:58 -37.30462 144.53222 13134 ft 346 kts 320°
2026-05-04 10:58 -37.28649 144.51218 13810 ft 349 kts 320°
2026-05-04 10:58 -37.17992 144.39451 17515 ft 354 kts 320°
2026-05-04 10:58 -37.02960 144.22930 21813 ft 363 kts 322°
2026-05-04 10:59 -36.87683 144.06283 25142 ft 378 kts 323°
2026-05-04 10:59 -36.69702 143.93009 27236 ft 388 kts 344°
2026-05-04 10:59 -36.48697 143.84790 29593 ft 404 kts 341°
2026-05-04 10:59 -36.26795 143.75731 30173 ft 423 kts 341°
2026-05-04 11:00 -36.04295 143.66523 30066 ft 426 kts 341°
2026-05-04 11:01 -34.52279 142.95985 30037 ft 415 kts 330°
2026-05-04 11:02 -34.31797 142.83546 30080 ft 411 kts 330°
2026-05-04 11:05 -31.12700 140.84585 29974 ft 463 kts 325°
2026-05-04 11:06 -30.90963 140.69086 30169 ft 456 kts 325°
2026-05-04 11:06 -30.69180 140.53637 30285 ft 462 kts 325°
2026-05-04 11:06 -30.24788 140.22420 30125 ft 463 kts 326°
2026-05-04 11:08 -28.70792 139.23369 30172 ft 445 kts 328°
2026-05-04 11:10 -27.15097 138.30433 30307 ft 460 kts 329°
2026-05-04 11:12 -25.57985 137.39630 30155 ft 449 kts 329°
2026-05-04 11:12 -25.36142 137.27223 30146 ft 436 kts 329°
2026-05-04 11:12 -25.14589 137.15027 30267 ft 435 kts 328°
2026-05-04 11:12 -24.92902 137.02802 30283 ft 441 kts 328°
2026-05-04 11:13 -24.49650 136.78575 30137 ft 431 kts 328°
2026-05-04 11:13 -24.07600 136.55206 30260 ft 426 kts 328°
2026-05-04 11:14 -23.64572 136.31473 30208 ft 437 kts 328°
2026-05-04 11:16 -21.93329 135.38688 30214 ft 427 kts 328°
2026-05-04 11:16 -21.49930 135.15572 30199 ft 440 kts 328°
2026-05-04 11:17 -21.06798 134.92807 30102 ft 427 kts 328°
2026-05-04 11:19 -19.52852 134.14063 30232 ft 457 kts 336°
2026-05-04 11:19 -19.28761 134.05569 30101 ft 454 kts 335°
2026-05-04 11:19 -18.81981 133.88556 30074 ft 444 kts 335°
2026-05-04 11:20 -18.58165 133.79949 30701 ft 462 kts 335°
2026-05-04 11:20 -18.33700 133.71158 32046 ft 471 kts 334°
2026-05-04 11:20 -18.08422 133.62054 32184 ft 486 kts 334°
2026-05-04 11:20 -17.82919 133.52936 32018 ft 479 kts 334°
2026-05-04 11:22 -15.82838 132.82374 32013 ft 476 kts 335°
2026-05-04 11:23 -15.57431 132.73538 32087 ft 487 kts 335°
2026-05-04 11:23 -15.31441 132.64531 32069 ft 496 kts 336°
2026-05-04 11:24 -13.71980 132.25927 31998 ft 502 kts 348°
2026-05-04 11:25 -13.44295 132.22077 31964 ft 503 kts 348°
2026-05-04 11:25 -12.88839 132.14390 31940 ft 502 kts 348°
2026-05-04 11:27 -10.64625 131.24976 31827 ft 486 kts 321°
2026-05-04 11:28 -10.21618 130.92299 32036 ft 488 kts 321°
2026-05-04 11:28 -9.99916 130.75853 32056 ft 499 kts 321°
2026-05-04 11:28 -9.77573 130.58955 31953 ft 500 kts 321°
2026-05-04 11:29 -9.33664 130.25823 31872 ft 485 kts 321°
2026-05-04 11:29 -9.11923 130.09457 31990 ft 489 kts 321°
2026-05-04 11:29 -8.89857 129.92872 32048 ft 499 kts 321°
2026-05-04 11:31 -7.08753 129.22419 31923 ft 512 kts 342°
2026-05-04 11:33 -5.19359 128.65648 31828 ft 503 kts 343°
2026-05-04 11:33 -4.65337 128.49524 32016 ft 513 kts 343°
2026-05-04 11:34 -4.10348 128.33138 31858 ft 511 kts 343°
2026-05-04 11:34 -3.83380 128.25108 31803 ft 500 kts 343°
2026-05-04 11:34 -3.57066 128.16575 31816 ft 498 kts 332°
2026-05-04 11:35 -3.33661 128.02197 32013 ft 504 kts 329°
2026-05-04 11:35 -3.09169 127.87982 31993 ft 514 kts 329°
2026-05-04 11:35 -2.84444 127.73493 31884 ft 513 kts 329°
2026-05-04 11:35 -2.59927 127.59156 31814 ft 505 kts 329°
2026-05-04 11:36 -2.11845 127.31056 31944 ft 503 kts 330°
2026-05-04 11:36 -1.87410 127.16786 32002 ft 514 kts 330°
2026-05-04 11:36 -1.62533 127.02261 31931 ft 519 kts 330°
2026-05-04 11:37 -1.13540 126.73669 31816 ft 505 kts 330°
2026-05-04 11:37 -0.64902 126.45291 31986 ft 513 kts 330°
2026-05-04 11:38 -0.15038 126.16213 31876 ft 517 kts 330°
2026-05-04 11:38 0.33814 125.87715 31852 ft 503 kts 330°
2026-05-04 11:39 0.58178 125.73501 31961 ft 509 kts 330°
2026-05-04 11:39 0.82553 125.59284 31996 ft 519 kts 330°
2026-05-04 11:41 2.55260 124.57954 31842 ft 515 kts 330°
2026-05-04 11:41 3.03424 124.29320 31916 ft 505 kts 330°
2026-05-04 11:42 3.52569 124.00071 31955 ft 520 kts 330°
2026-05-04 11:42 3.77331 123.85317 31848 ft 514 kts 330°
2026-05-04 11:42 4.01703 123.70793 31817 ft 504 kts 330°
2026-05-04 11:43 4.50712 123.43100 32764 ft 518 kts 331°
2026-05-04 11:43 4.75915 123.28818 33939 ft 525 kts 331°
2026-05-04 11:43 5.01064 123.14552 33944 ft 525 kts 331°
2026-05-04 11:43 5.26154 123.00309 33819 ft 510 kts 331°
2026-05-04 11:44 5.50478 122.86489 33776 ft 495 kts 331°
2026-05-04 11:44 5.74375 122.72898 33908 ft 494 kts 330°
2026-05-04 11:44 5.98501 122.59158 34003 ft 503 kts 330°
2026-05-04 11:44 6.23145 122.45109 34010 ft 514 kts 330°
2026-05-04 11:45 6.48103 122.30868 33908 ft 514 kts 330°
2026-05-04 11:45 6.97095 122.03043 33870 ft 497 kts 333°
2026-05-04 11:46 7.46824 121.78830 34001 ft 506 kts 334°
2026-05-04 11:46 7.98109 121.53571 33912 ft 514 kts 334°
2026-05-04 11:47 8.48804 121.28530 33823 ft 498 kts 334°
2026-05-04 11:47 8.98927 121.03699 34000 ft 510 kts 333°
2026-05-04 11:48 9.50387 120.78118 33918 ft 521 kts 333°
2026-05-04 11:48 10.01717 120.52481 33843 ft 505 kts 333°
2026-05-04 11:49 10.51372 120.27558 33943 ft 495 kts 333°
2026-05-04 11:49 11.01465 120.02324 33986 ft 511 kts 333°
2026-05-04 11:50 11.52396 119.76505 33853 ft 507 kts 333°
2026-05-04 11:50 12.01745 119.51438 33912 ft 494 kts 333°